PIMOHWEATHER Station Historical Data
Daily Summary for January 29, 2020 Units:  Metric    English   Both
Daily Weekly Monthly Yearly
  High: Low: Average:
Temperature: 32.0 °C 23.0 °C 27.1 °C
Dew Point: 25.0 °C 21.0 °C 22.5 °C
Humidity: 87% 55% 77%
Wind Speed: 27km/h 0km/h 8.9km/h
Wind Gust: 32km/h - -
Wind- - South
Pressure: 1014.0 hPa 1008.8 hPa -
Precipitation: 0.00 mm    
 
 
Tabular Data for January 29, 2020
Time Temperature Dew Point Pressure Wind Wind Speed Wind Gust Humidity Rainfall Rate (Hourly) solar
00:04 26.0 °C 23.0 °C 1011.6 hPa North 4 km/h 4 km/h 83% 0.00 mm 0.00 W/m2
00:09 26.0 °C 23.0 °C 1011.6 hPa North 5 km/h 8 km/h 83% 0.00 mm 0.00 W/m2
00:14 26.0 °C 23.0 °C 1011.6 hPa North 5 km/h 8 km/h 83% 0.00 mm 0.00 W/m2
00:19 26.0 °C 23.0 °C 1011.6 hPa NNE 5 km/h 8 km/h 83% 0.00 mm 0.00 W/m2
00:24 26.0 °C 23.0 °C 1011.6 hPa North 6 km/h 8 km/h 83% 0.00 mm 0.00 W/m2
00:29 26.0 °C 22.0 °C 1011.6 hPa North 5 km/h 8 km/h 82% 0.00 mm 0.00 W/m2
00:34 26.0 °C 22.0 °C 1011.6 hPa NNE 3 km/h 4 km/h 82% 0.00 mm 0.00 W/m2
00:39 26.0 °C 22.0 °C 1011.6 hPa North 5 km/h 8 km/h 82% 0.00 mm 0.00 W/m2
00:44 26.0 °C 22.0 °C 1011.6 hPa North 5 km/h 8 km/h 82% 0.00 mm 0.00 W/m2
00:49 26.0 °C 22.0 °C 1011.5 hPa North 5 km/h 8 km/h 81% 0.00 mm 0.00 W/m2
00:54 25.0 °C 22.0 °C 1011.4 hPa NNE 5 km/h 8 km/h 81% 0.00 mm 0.00 W/m2
00:59 25.0 °C 22.0 °C 1011.4 hPa North 6 km/h 8 km/h 81% 0.00 mm 0.00 W/m2
01:04 25.0 °C 22.0 °C 1011.3 hPa NNE 5 km/h 8 km/h 81% 0.00 mm 0.00 W/m2
01:09 25.0 °C 22.0 °C 1011.3 hPa NW 5 km/h 12 km/h 81% 0.00 mm 0.00 W/m2
01:14 25.0 °C 22.0 °C 1011.3 hPa North 5 km/h 12 km/h 82% 0.00 mm 0.00 W/m2
01:19 25.0 °C 22.0 °C 1011.3 hPa NNE 6 km/h 8 km/h 82% 0.00 mm 0.00 W/m2
01:24 25.0 °C 22.0 °C 1011.3 hPa NNE 5 km/h 8 km/h 82% 0.00 mm 0.00 W/m2
01:29 25.0 °C 21.0 °C 1011.3 hPa NNE 4 km/h 4 km/h 81% 0.00 mm 0.00 W/m2
01:34 25.0 °C 21.0 °C 1011.0 hPa NNE 3 km/h 4 km/h 81% 0.00 mm 0.00 W/m2
01:39 25.0 °C 21.0 °C 1011.0 hPa NNE 1 km/h 4 km/h 81% 0.00 mm 0.00 W/m2
01:44 25.0 °C 21.0 °C 1011.0 hPa Calm     81% 0.00 mm 0.00 W/m2
01:49 25.0 °C 21.0 °C 1011.0 hPa Calm     81% 0.00 mm 0.00 W/m2
01:54 25.0 °C 21.0 °C 1011.0 hPa Calm     81% 0.00 mm 0.00 W/m2
01:59 25.0 °C 21.0 °C 1011.0 hPa Calm     81% 0.00 mm 0.00 W/m2
02:04 25.0 °C 21.0 °C 1011.0 hPa Calm     81% 0.00 mm 0.00 W/m2
02:09 25.0 °C 21.0 °C 1010.9 hPa Calm   4 km/h 80% 0.00 mm 0.00 W/m2
02:14 25.0 °C 21.0 °C 1010.6 hPa Calm     80% 0.00 mm 0.00 W/m2
02:19 25.0 °C 21.0 °C 1010.9 hPa Calm     81% 0.00 mm 0.00 W/m2
02:24 25.0 °C 21.0 °C 1010.8 hPa Calm     80% 0.00 mm 0.00 W/m2
02:29 25.0 °C 21.0 °C 1010.6 hPa Calm   4 km/h 80% 0.00 mm 0.00 W/m2
02:34 25.0 °C 21.0 °C 1010.6 hPa North 1 km/h 4 km/h 80% 0.00 mm 0.00 W/m2
02:39 25.0 °C 21.0 °C 1010.6 hPa Calm     80% 0.00 mm 0.00 W/m2
02:44 25.0 °C 21.0 °C 1010.8 hPa Calm     81% 0.00 mm 0.00 W/m2
02:49 25.0 °C 21.0 °C 1011.0 hPa Calm     80% 0.00 mm 0.00 W/m2
02:54 25.0 °C 21.0 °C 1010.7 hPa Calm     81% 0.00 mm 0.00 W/m2
02:59 25.0 °C 21.0 °C 1010.8 hPa NW 2 km/h 4 km/h 81% 0.00 mm 0.00 W/m2
03:04 25.0 °C 21.0 °C 1011.0 hPa NW 1 km/h 4 km/h 81% 0.00 mm 0.00 W/m2
03:09 25.0 °C 21.0 °C 1010.8 hPa North 2 km/h 4 km/h 81% 0.00 mm 0.00 W/m2
03:14 25.0 °C 21.0 °C 1010.9 hPa North 4 km/h 4 km/h 82% 0.00 mm 0.00 W/m2
03:19 25.0 °C 21.0 °C 1010.8 hPa North 3 km/h 4 km/h 82% 0.00 mm 0.00 W/m2
03:24 25.0 °C 21.0 °C 1011.0 hPa NNE 5 km/h 8 km/h 82% 0.00 mm 0.00 W/m2
03:29 25.0 °C 21.0 °C 1011.0 hPa NNE 3 km/h 4 km/h 82% 0.00 mm 0.00 W/m2
03:34 25.0 °C 21.0 °C 1011.0 hPa NNE 3 km/h 4 km/h 82% 0.00 mm 0.00 W/m2
03:39 25.0 °C 21.0 °C 1011.0 hPa North 2 km/h 4 km/h 82% 0.00 mm 0.00 W/m2
03:44 25.0 °C 21.0 °C 1011.0 hPa North 3 km/h 4 km/h 82% 0.00 mm 0.00 W/m2
03:49 25.0 °C 21.0 °C 1011.0 hPa North 3 km/h 4 km/h 82% 0.00 mm 0.00 W/m2
03:54 25.0 °C 21.0 °C 1011.0 hPa North 3 km/h 4 km/h 83% 0.00 mm 0.00 W/m2
03:59 24.0 °C 21.0 °C 1011.0 hPa NNW 3 km/h 4 km/h 83% 0.00 mm 0.00 W/m2
04:04 24.0 °C 21.0 °C 1011.0 hPa Calm     83% 0.00 mm 0.00 W/m2
04:09 24.0 °C 21.0 °C 1011.0 hPa North 4 km/h 4 km/h 83% 0.00 mm 0.00 W/m2
04:14 24.0 °C 21.0 °C 1011.0 hPa North 6 km/h 8 km/h 83% 0.00 mm 0.00 W/m2
04:19 24.0 °C 21.0 °C 1011.2 hPa North 6 km/h 8 km/h 84% 0.00 mm 0.00 W/m2
04:24 24.0 °C 21.0 °C 1011.3 hPa NNW 5 km/h 8 km/h 84% 0.00 mm 0.00 W/m2
04:29 24.0 °C 21.0 °C 1011.3 hPa North 6 km/h 8 km/h 84% 0.00 mm 0.00 W/m2
04:34 24.0 °C 21.0 °C 1011.3 hPa North 5 km/h 8 km/h 84% 0.00 mm 0.00 W/m2
04:39 24.0 °C 21.0 °C 1011.3 hPa North 3 km/h 4 km/h 85% 0.00 mm 0.00 W/m2
04:44 24.0 °C 21.0 °C 1011.3 hPa North 4 km/h 4 km/h 85% 0.00 mm 0.00 W/m2
04:49 24.0 °C 21.0 °C 1011.3 hPa North 4 km/h 4 km/h 85% 0.00 mm 0.00 W/m2
04:54 24.0 °C 21.0 °C 1011.3 hPa NNW 4 km/h 4 km/h 85% 0.00 mm 0.00 W/m2
04:59 24.0 °C 21.0 °C 1011.5 hPa North 5 km/h 8 km/h 85% 0.00 mm 0.00 W/m2
05:04 24.0 °C 21.0 °C 1011.7 hPa North 7 km/h 8 km/h 85% 0.00 mm 0.00 W/m2
05:09 24.0 °C 21.0 °C 1011.7 hPa NNW 5 km/h 8 km/h 85% 0.00 mm 0.00 W/m2
05:14 24.0 °C 21.0 °C 1011.7 hPa NNW 4 km/h 4 km/h 86% 0.00 mm 0.00 W/m2
05:19 24.0 °C 21.0 °C 1011.7 hPa NNE 1 km/h 4 km/h 86% 0.00 mm 0.00 W/m2
05:24 24.0 °C 21.0 °C 1011.7 hPa NNW 1 km/h 4 km/h 86% 0.00 mm 0.00 W/m2
05:29 24.0 °C 21.0 °C 1011.7 hPa Calm     86% 0.00 mm 0.00 W/m2
05:34 24.0 °C 21.0 °C 1011.7 hPa NNW 2 km/h 4 km/h 85% 0.00 mm 0.00 W/m2
05:39 24.0 °C 21.0 °C 1011.7 hPa North 3 km/h 4 km/h 85% 0.00 mm 0.00 W/m2
05:44 24.0 °C 21.0 °C 1011.7 hPa North 4 km/h 4 km/h 86% 0.00 mm 0.00 W/m2
05:49 24.0 °C 21.0 °C 1011.9 hPa North 4 km/h 4 km/h 86% 0.00 mm 0.00 W/m2
05:54 24.0 °C 21.0 °C 1012.0 hPa North 4 km/h 4 km/h 86% 0.00 mm 0.00 W/m2
05:59 24.0 °C 21.0 °C 1012.0 hPa North 4 km/h 4 km/h 86% 0.00 mm 0.00 W/m2
06:04 24.0 °C 21.0 °C 1012.0 hPa North 4 km/h 4 km/h 86% 0.00 mm 0.00 W/m2
06:09 24.0 °C 21.0 °C 1012.0 hPa North 2 km/h 4 km/h 86% 0.00 mm 0.00 W/m2
06:14 23.0 °C 21.0 °C 1012.2 hPa Calm     87% 0.00 mm 0.00 W/m2
06:19 24.0 °C 21.0 °C 1012.2 hPa Calm     87% 0.00 mm 0.00 W/m2
06:24 24.0 °C 21.0 °C 1012.4 hPa Calm     86% 0.00 mm 0.18 W/m2
06:29 24.0 °C 21.0 °C 1012.4 hPa NNW 3 km/h 4 km/h 86% 0.00 mm 2.77 W/m2
06:34 24.0 °C 21.0 °C 1012.4 hPa North 5 km/h 8 km/h 86% 0.00 mm 5.49 W/m2
06:39 23.0 °C 21.0 °C 1012.4 hPa North 5 km/h 8 km/h 86% 0.00 mm 9.23 W/m2
06:44 24.0 °C 21.0 °C 1012.7 hPa North 4 km/h 4 km/h 86% 0.00 mm 13.24 W/m2
06:49 24.0 °C 21.0 °C 1012.6 hPa North 5 km/h 12 km/h 87% 0.00 mm 18.91 W/m2
06:54 23.0 °C 21.0 °C 1012.7 hPa North 5 km/h 8 km/h 87% 0.00 mm 22.94 W/m2
06:59 24.0 °C 21.0 °C 1012.7 hPa NNE 3 km/h 4 km/h 87% 0.00 mm 27.29 W/m2
07:04 24.0 °C 21.0 °C 1012.7 hPa North 4 km/h 4 km/h 86% 0.00 mm 31.35 W/m2
07:09 24.0 °C 21.0 °C 1012.7 hPa NNE 6 km/h 8 km/h 86% 0.00 mm 35.58 W/m2
07:14 24.0 °C 21.0 °C 1012.7 hPa North 5 km/h 8 km/h 86% 0.00 mm 40.26 W/m2
07:19 24.0 °C 21.0 °C 1012.9 hPa North 4 km/h 4 km/h 85% 0.00 mm 45.92 W/m2
07:24 24.0 °C 21.0 °C 1013.0 hPa North 3 km/h 4 km/h 85% 0.00 mm 51.09 W/m2
07:29 24.0 °C 21.0 °C 1013.0 hPa NNE 7 km/h 8 km/h 85% 0.00 mm 56.32 W/m2
07:34 24.0 °C 21.0 °C 1013.0 hPa North 6 km/h 8 km/h 84% 0.00 mm 59.82 W/m2
07:39 24.0 °C 21.0 °C 1013.2 hPa North 7 km/h 12 km/h 84% 0.00 mm 65.25 W/m2
07:44 24.0 °C 21.0 °C 1013.4 hPa North 7 km/h 8 km/h 84% 0.00 mm 72.58 W/m2
07:49 25.0 °C 21.0 °C 1013.3 hPa NNE 8 km/h 12 km/h 84% 0.00 mm 76.56 W/m2
07:54 25.0 °C 21.0 °C 1013.3 hPa North 8 km/h 8 km/h 83% 0.00 mm 84.95 W/m2
07:59 25.0 °C 22.0 °C 1013.3 hPa NNE 6 km/h 8 km/h 83% 0.00 mm 91.01 W/m2
08:04 25.0 °C 22.0 °C 1013.3 hPa NNE 5 km/h 8 km/h 82% 0.00 mm 95.56 W/m2
08:09 25.0 °C 22.0 °C 1013.3 hPa NW 5 km/h 8 km/h 82% 0.00 mm 104.01 W/m2
08:14 25.0 °C 22.0 °C 1013.7 hPa NNW 6 km/h 8 km/h 82% 0.00 mm 109.78 W/m2
08:19 26.0 °C 22.0 °C 1013.7 hPa NNW 6 km/h 8 km/h 81% 0.00 mm 116.51 W/m2
08:24 26.0 °C 22.0 °C 1013.7 hPa NW 5 km/h 8 km/h 80% 0.00 mm 125.10 W/m2
08:29 26.0 °C 22.0 °C 1013.7 hPa NW 9 km/h 12 km/h 80% 0.00 mm 127.86 W/m2
08:34 26.0 °C 22.0 °C 1013.8 hPa NW 8 km/h 12 km/h 79% 0.00 mm 132.09 W/m2
08:39 26.0 °C 22.0 °C 1014.0 hPa NW 10 km/h 16 km/h 79% 0.00 mm 136.20 W/m2
08:44 26.0 °C 22.0 °C 1014.0 hPa NW 8 km/h 8 km/h 79% 0.00 mm 143.25 W/m2
08:49 26.0 °C 22.0 °C 1014.0 hPa NNW 8 km/h 12 km/h 78% 0.00 mm 151.84 W/m2
08:54 26.0 °C 22.0 °C 1014.0 hPa North 5 km/h 8 km/h 77% 0.00 mm 159.89 W/m2
08:59 27.0 °C 23.0 °C 1014.0 hPa WSW 3 km/h 4 km/h 77% 0.00 mm 172.83 W/m2
09:04 28.0 °C 23.0 °C 1014.0 hPa NNE 6 km/h 8 km/h 75% 0.00 mm 183.55 W/m2
09:09 28.0 °C 23.0 °C 1014.0 hPa NW 7 km/h 8 km/h 75% 0.00 mm 193.56 W/m2
09:14 28.0 °C 23.0 °C 1014.0 hPa NW 5 km/h 8 km/h 76% 0.00 mm 192.60 W/m2
09:19 28.0 °C 23.0 °C 1014.0 hPa NW 5 km/h 8 km/h 76% 0.00 mm 204.88 W/m2
09:24 28.0 °C 23.0 °C 1014.0 hPa NNW 5 km/h 8 km/h 75% 0.00 mm 207.38 W/m2
09:29 29.0 °C 23.0 °C 1013.9 hPa South 6 km/h 8 km/h 73% 0.00 mm 220.03 W/m2
09:34 29.0 °C 23.0 °C 1014.0 hPa NW 8 km/h 8 km/h 73% 0.00 mm 236.35 W/m2
09:39 28.0 °C 23.0 °C 1013.9 hPa NNW 9 km/h 12 km/h 74% 0.00 mm 238.09 W/m2
09:44 29.0 °C 23.0 °C 1013.6 hPa West 9 km/h 12 km/h 74% 0.00 mm 233.58 W/m2
09:49 29.0 °C 23.0 °C 1013.6 hPa SSW 7 km/h 12 km/h 72% 0.00 mm 229.62 W/m2
09:54 29.0 °C 23.0 °C 1013.6 hPa North 5 km/h 8 km/h 72% 0.00 mm 237.57 W/m2
09:59 29.0 °C 23.0 °C 1013.6 hPa ENE 4 km/h 8 km/h 72% 0.00 mm 249.51 W/m2
10:04 30.0 °C 24.0 °C 1013.6 hPa WNW 6 km/h 8 km/h 70% 0.00 mm 263.65 W/m2
10:09 30.0 °C 24.0 °C 1013.6 hPa SSW 11 km/h 12 km/h 70% 0.00 mm 261.87 W/m2
10:14 30.0 °C 24.0 °C 1013.6 hPa SSW 10 km/h 12 km/h 70% 0.00 mm 279.93 W/m2
10:19 30.0 °C 24.0 °C 1013.6 hPa South 10 km/h 12 km/h 71% 0.00 mm 299.62 W/m2
10:24 30.0 °C 24.0 °C 1013.6 hPa South 10 km/h 12 km/h 71% 0.00 mm 269.23 W/m2
10:29 30.0 °C 24.0 °C 1013.6 hPa SW 11 km/h 16 km/h 72% 0.00 mm 286.36 W/m2
10:34 30.0 °C 24.0 °C 1013.6 hPa SSW 9 km/h 12 km/h 72% 0.00 mm 300.23 W/m2
10:39 29.0 °C 24.0 °C 1013.6 hPa NW 13 km/h 16 km/h 73% 0.00 mm 304.69 W/m2
10:44 30.0 °C 24.0 °C 1013.5 hPa South 9 km/h 12 km/h 73% 0.00 mm 309.41 W/m2
10:49 30.0 °C 24.0 °C 1013.3 hPa South 8 km/h 12 km/h 70% 0.00 mm 309.16 W/m2
10:54 30.0 °C 23.0 °C 1013.3 hPa WNW 13 km/h 16 km/h 71% 0.00 mm 291.57 W/m2
10:59 29.0 °C 23.0 °C 1013.3 hPa WSW 8 km/h 12 km/h 71% 0.00 mm 284.70 W/m2
11:04 29.0 °C 24.0 °C 1012.9 hPa SSW 14 km/h 16 km/h 72% 0.00 mm 274.18 W/m2
11:09 30.0 °C 24.0 °C 1012.9 hPa South 12 km/h 16 km/h 71% 0.00 mm 263.46 W/m2
11:14 29.0 °C 23.0 °C 1012.9 hPa South 8 km/h 12 km/h 71% 0.00 mm 261.18 W/m2
11:19 29.0 °C 23.0 °C 1012.9 hPa West 13 km/h 16 km/h 71% 0.00 mm 278.58 W/m2
11:24 29.0 °C 23.0 °C 1012.9 hPa WSW 12 km/h 16 km/h 71% 0.00 mm 266.66 W/m2
11:29 29.0 °C 23.0 °C 1012.6 hPa South 8 km/h 12 km/h 70% 0.00 mm 300.99 W/m2
11:34 29.0 °C 23.0 °C 1012.6 hPa SW 10 km/h 16 km/h 70% 0.00 mm 300.65 W/m2
11:39 30.0 °C 23.0 °C 1012.6 hPa South 11 km/h 12 km/h 70% 0.00 mm 315.55 W/m2
11:44 29.0 °C 23.0 °C 1012.6 hPa SSE 12 km/h 16 km/h 71% 0.00 mm 313.89 W/m2
11:49 30.0 °C 23.0 °C 1012.3 hPa South 12 km/h 16 km/h 70% 0.00 mm 306.40 W/m2
11:54 29.0 °C 23.0 °C 1012.3 hPa South 12 km/h 16 km/h 71% 0.00 mm 311.22 W/m2
11:59 29.0 °C 23.0 °C 1012.3 hPa SSW 12 km/h 16 km/h 71% 0.00 mm 312.61 W/m2
12:04 29.0 °C 23.0 °C 1012.1 hPa SSW 10 km/h 12 km/h 70% 0.00 mm 299.79 W/m2
12:09 29.0 °C 23.0 °C 1011.9 hPa SW 10 km/h 12 km/h 70% 0.00 mm 306.50 W/m2
12:14 30.0 °C 24.0 °C 1011.9 hPa South 10 km/h 12 km/h 70% 0.00 mm 313.13 W/m2
12:19 30.0 °C 23.0 °C 1011.9 hPa SW 12 km/h 16 km/h 70% 0.00 mm 323.26 W/m2
12:24 30.0 °C 23.0 °C 1011.6 hPa SSW 13 km/h 16 km/h 70% 0.00 mm 321.84 W/m2
12:29 30.0 °C 23.0 °C 1011.6 hPa South 16 km/h 20 km/h 70% 0.00 mm 315.04 W/m2
12:34 30.0 °C 23.0 °C 1011.4 hPa South 14 km/h 20 km/h 69% 0.00 mm 332.38 W/m2
12:39 30.0 °C 24.0 °C 1011.6 hPa South 11 km/h 16 km/h 69% 0.00 mm 336.71 W/m2
12:44 30.0 °C 24.0 °C 1011.2 hPa South 11 km/h 12 km/h 68% 0.00 mm 335.91 W/m2
12:49 30.0 °C 24.0 °C 1011.2 hPa SSW 10 km/h 12 km/h 68% 0.00 mm 332.75 W/m2
12:54 30.0 °C 23.0 °C 1011.2 hPa SSW 10 km/h 12 km/h 68% 0.00 mm 344.20 W/m2
12:59 31.0 °C 23.0 °C 1010.9 hPa South 8 km/h 12 km/h 66% 0.00 mm 346.08 W/m2
13:04 31.0 °C 23.0 °C 1010.9 hPa South 11 km/h 16 km/h 63% 0.00 mm 350.64 W/m2
13:09 31.0 °C 23.0 °C 1010.9 hPa SSW 8 km/h 12 km/h 62% 0.00 mm 339.85 W/m2
13:14 31.0 °C 23.0 °C 1010.9 hPa SSE 10 km/h 12 km/h 63% 0.00 mm 334.07 W/m2
13:19 31.0 °C 22.0 °C 1010.7 hPa SSE 9 km/h 12 km/h 60% 0.00 mm 330.18 W/m2
13:24 30.0 °C 22.0 °C 1010.5 hPa South 12 km/h 16 km/h 61% 0.00 mm 312.66 W/m2
13:29 30.0 °C 22.0 °C 1010.5 hPa SW 11 km/h 16 km/h 61% 0.00 mm 319.12 W/m2
13:34 31.0 °C 21.0 °C 1010.4 hPa SSW 7 km/h 8 km/h 58% 0.00 mm 325.80 W/m2
13:39 31.0 °C 22.0 °C 1010.2 hPa South 9 km/h 12 km/h 58% 0.00 mm 326.80 W/m2
13:44 31.0 °C 21.0 °C 1010.2 hPa South 10 km/h 12 km/h 58% 0.00 mm 325.95 W/m2
13:49 31.0 °C 21.0 °C 1010.0 hPa SSW 14 km/h 16 km/h 60% 0.00 mm 325.36 W/m2
13:54 31.0 °C 22.0 °C 1009.9 hPa SW 11 km/h 12 km/h 60% 0.00 mm 327.12 W/m2
13:59 31.0 °C 21.0 °C 1009.9 hPa South 9 km/h 12 km/h 59% 0.00 mm 330.18 W/m2
14:04 31.0 °C 21.0 °C 1009.9 hPa South 12 km/h 16 km/h 57% 0.00 mm 328.86 W/m2
14:09 31.0 °C 21.0 °C 1009.9 hPa South 10 km/h 12 km/h 57% 0.00 mm 319.93 W/m2
14:14 31.0 °C 22.0 °C 1009.5 hPa West 8 km/h 12 km/h 58% 0.00 mm 323.21 W/m2
14:19 31.0 °C 21.0 °C 1009.7 hPa ESE 7 km/h 8 km/h 58% 0.00 mm 328.32 W/m2
14:24 31.0 °C 21.0 °C 1009.5 hPa South 8 km/h 12 km/h 56% 0.00 mm 314.20 W/m2
14:29 31.0 °C 21.0 °C 1009.5 hPa South 10 km/h 12 km/h 57% 0.00 mm 312.92 W/m2
14:34 31.0 °C 21.0 °C 1009.1 hPa SSW 8 km/h 8 km/h 55% 0.00 mm 308.36 W/m2
14:39 32.0 °C 21.0 °C 1009.1 hPa South 8 km/h 12 km/h 56% 0.00 mm 298.89 W/m2
14:44 31.0 °C 22.0 °C 1009.1 hPa South 9 km/h 12 km/h 60% 0.00 mm 290.91 W/m2
14:49 31.0 °C 22.0 °C 1009.1 hPa South 9 km/h 12 km/h 60% 0.00 mm 288.95 W/m2
14:54 31.0 °C 22.0 °C 1009.1 hPa South 10 km/h 12 km/h 58% 0.00 mm 298.86 W/m2
14:59 32.0 °C 22.0 °C 1009.1 hPa South 10 km/h 12 km/h 59% 0.00 mm 298.57 W/m2
15:04 32.0 °C 23.0 °C 1009.0 hPa South 11 km/h 12 km/h 62% 0.00 mm 299.74 W/m2
15:09 31.0 °C 23.0 °C 1009.1 hPa South 14 km/h 16 km/h 62% 0.00 mm 292.40 W/m2
15:14 31.0 °C 23.0 °C 1009.0 hPa South 10 km/h 16 km/h 62% 0.00 mm 292.06 W/m2
15:19 31.0 °C 22.0 °C 1008.8 hPa SSW 12 km/h 16 km/h 62% 0.00 mm 288.91 W/m2
15:24 31.0 °C 23.0 °C 1008.8 hPa South 13 km/h 16 km/h 63% 0.00 mm 272.17 W/m2
15:29 31.0 °C 22.0 °C 1009.0 hPa South 12 km/h 16 km/h 62% 0.00 mm 264.63 W/m2
15:34 30.0 °C 22.0 °C 1009.0 hPa South 10 km/h 16 km/h 62% 0.00 mm 258.69 W/m2
15:39 31.0 °C 22.0 °C 1009.2 hPa South 14 km/h 16 km/h 62% 0.00 mm 252.44 W/m2
15:44 30.0 °C 22.0 °C 1009.2 hPa SSW 14 km/h 16 km/h 63% 0.00 mm 232.77 W/m2
15:49 30.0 °C 22.0 °C 1009.2 hPa South 11 km/h 12 km/h 62% 0.00 mm 234.42 W/m2
15:54 30.0 °C 22.0 °C 1009.2 hPa South 12 km/h 16 km/h 61% 0.00 mm 220.45 W/m2
15:59 31.0 °C 22.0 °C 1009.2 hPa South 9 km/h 16 km/h 59% 0.00 mm 216.36 W/m2
16:04 31.0 °C 22.0 °C 1009.2 hPa SSE 10 km/h 12 km/h 61% 0.00 mm 212.13 W/m2
16:09 31.0 °C 23.0 °C 1009.0 hPa South 10 km/h 12 km/h 64% 0.00 mm 203.66 W/m2
16:14 30.0 °C 23.0 °C 1009.2 hPa SSW 13 km/h 16 km/h 65% 0.00 mm 202.31 W/m2
16:19 30.0 °C 24.0 °C 1009.2 hPa South 12 km/h 16 km/h 68% 0.00 mm 196.94 W/m2
16:24 30.0 °C 24.0 °C 1009.2 hPa South 14 km/h 16 km/h 68% 0.00 mm 176.65 W/m2
16:29 30.0 °C 24.0 °C 1009.2 hPa South 14 km/h 20 km/h 70% 0.00 mm 158.91 W/m2
16:34 30.0 °C 24.0 °C 1009.2 hPa South 10 km/h 16 km/h 71% 0.00 mm 154.43 W/m2
16:39 30.0 °C 24.0 °C 1009.2 hPa South 5 km/h 8 km/h 71% 0.00 mm 143.29 W/m2
16:44 30.0 °C 24.0 °C 1009.2 hPa South 12 km/h 16 km/h 71% 0.00 mm 132.04 W/m2
16:49 30.0 °C 24.0 °C 1009.2 hPa South 10 km/h 12 km/h 71% 0.00 mm 125.90 W/m2
16:54 30.0 °C 24.0 °C 1009.4 hPa South 15 km/h 20 km/h 74% 0.00 mm 124.17 W/m2
16:59 30.0 °C 25.0 °C 1009.3 hPa South 10 km/h 16 km/h 76% 0.00 mm 79.16 W/m2
17:04 29.0 °C 25.0 °C 1009.4 hPa South 11 km/h 12 km/h 76% 0.00 mm 69.14 W/m2
17:09 29.0 °C 25.0 °C 1009.4 hPa South 15 km/h 20 km/h 78% 0.00 mm 61.83 W/m2
17:14 29.0 °C 25.0 °C 1009.5 hPa SSW 12 km/h 16 km/h 77% 0.00 mm 54.40 W/m2
17:19 29.0 °C 24.0 °C 1009.6 hPa South 14 km/h 20 km/h 78% 0.00 mm 47.06 W/m2
17:24 29.0 °C 24.0 °C 1009.8 hPa South 14 km/h 20 km/h 79% 0.00 mm 39.28 W/m2
17:29 28.0 °C 24.0 °C 1009.8 hPa SSW 9 km/h 12 km/h 79% 0.00 mm 32.00 W/m2
17:34 28.0 °C 24.0 °C 1009.9 hPa South 10 km/h 16 km/h 78% 0.00 mm 25.26 W/m2
17:39 28.0 °C 24.0 °C 1009.9 hPa South 9 km/h 12 km/h 77% 0.00 mm 17.75 W/m2
17:44 28.0 °C 24.0 °C 1009.9 hPa South 10 km/h 12 km/h 78% 0.00 mm 10.22 W/m2
17:49 28.0 °C 24.0 °C 1009.9 hPa South 12 km/h 16 km/h 79% 0.00 mm 5.67 W/m2
17:54 28.0 °C 24.0 °C 1009.9 hPa South 10 km/h 16 km/h 79% 0.00 mm 2.53 W/m2
17:59 28.0 °C 24.0 °C 1009.9 hPa South 9 km/h 12 km/h 79% 0.00 mm 0.01 W/m2
18:04 28.0 °C 24.0 °C 1009.9 hPa South 14 km/h 16 km/h 80% 0.00 mm 0.00 W/m2
18:09 28.0 °C 24.0 °C 1009.9 hPa South 10 km/h 16 km/h 80% 0.00 mm 0.00 W/m2
18:14 27.0 °C 24.0 °C 1009.9 hPa SSE 10 km/h 12 km/h 80% 0.00 mm 0.00 W/m2
18:19 27.0 °C 24.0 °C 1009.9 hPa South 10 km/h 16 km/h 79% 0.00 mm 0.00 W/m2
18:24 27.0 °C 23.0 °C 1009.9 hPa South 11 km/h 16 km/h 79% 0.00 mm 0.00 W/m2
18:29 27.0 °C 24.0 °C 1009.9 hPa South 7 km/h 12 km/h 80% 0.00 mm 0.00 W/m2
18:34 27.0 °C 24.0 °C 1010.1 hPa SSE 10 km/h 16 km/h 80% 0.00 mm 0.00 W/m2
18:39 27.0 °C 24.0 °C 1010.2 hPa South 10 km/h 12 km/h 81% 0.00 mm 0.00 W/m2
18:44 27.0 °C 24.0 °C 1010.2 hPa SSE 9 km/h 12 km/h 82% 0.00 mm 0.00 W/m2
18:49 27.0 °C 24.0 °C 1010.2 hPa SSW 13 km/h 16 km/h 83% 0.00 mm 0.00 W/m2
18:54 27.0 °C 24.0 °C 1010.2 hPa South 8 km/h 12 km/h 83% 0.00 mm 0.00 W/m2
18:59 27.0 °C 24.0 °C 1010.4 hPa South 9 km/h 12 km/h 83% 0.00 mm 0.00 W/m2
19:04 27.0 °C 24.0 °C 1010.6 hPa South 10 km/h 12 km/h 83% 0.00 mm 0.00 W/m2
19:09 27.0 °C 24.0 °C 1010.6 hPa South 9 km/h 12 km/h 83% 0.00 mm 0.00 W/m2
19:14 27.0 °C 24.0 °C 1010.6 hPa South 7 km/h 8 km/h 84% 0.00 mm 0.00 W/m2
19:19 27.0 °C 24.0 °C 1010.6 hPa SSW 7 km/h 8 km/h 84% 0.00 mm 0.00 W/m2
19:24 27.0 °C 24.0 °C 1010.8 hPa South 6 km/h 8 km/h 84% 0.00 mm 0.00 W/m2
19:29 27.0 °C 24.0 °C 1010.9 hPa SSW 5 km/h 8 km/h 84% 0.00 mm 0.00 W/m2
19:34 27.0 °C 24.0 °C 1010.9 hPa SSW 13 km/h 16 km/h 84% 0.00 mm 0.00 W/m2
19:39 27.0 °C 24.0 °C 1010.9 hPa West 5 km/h 8 km/h 81% 0.00 mm 0.00 W/m2
19:44 27.0 °C 24.0 °C 1010.9 hPa West 8 km/h 12 km/h 81% 0.00 mm 0.00 W/m2
19:49 27.0 °C 24.0 °C 1010.9 hPa West 10 km/h 12 km/h 82% 0.00 mm 0.00 W/m2
19:54 27.0 °C 24.0 °C 1010.9 hPa NW 10 km/h 12 km/h 83% 0.00 mm 0.00 W/m2
19:59 27.0 °C 24.0 °C 1011.1 hPa NW 12 km/h 16 km/h 83% 0.00 mm 0.00 W/m2
20:04 27.0 °C 24.0 °C 1010.9 hPa NW 13 km/h 16 km/h 83% 0.00 mm 0.00 W/m2
20:09 27.0 °C 24.0 °C 1011.2 hPa NW 12 km/h 16 km/h 82% 0.00 mm 0.00 W/m2
20:14 27.0 °C 24.0 °C 1011.2 hPa NW 10 km/h 16 km/h 82% 0.00 mm 0.00 W/m2
20:19 27.0 °C 24.0 °C 1011.3 hPa NW 13 km/h 16 km/h 82% 0.00 mm 0.00 W/m2
20:24 27.0 °C 24.0 °C 1011.3 hPa NW 10 km/h 12 km/h 82% 0.00 mm 0.00 W/m2
20:29 27.0 °C 24.0 °C 1011.3 hPa NW 21 km/h 28 km/h 81% 0.00 mm 0.00 W/m2
20:34 27.0 °C 23.0 °C 1011.6 hPa North 21 km/h 24 km/h 80% 0.00 mm 0.00 W/m2
20:39 27.0 °C 23.0 °C 1011.6 hPa North 18 km/h 20 km/h 80% 0.00 mm 0.00 W/m2
20:44 27.0 °C 24.0 °C 1011.6 hPa North 19 km/h 24 km/h 81% 0.00 mm 0.00 W/m2
20:49 27.0 °C 24.0 °C 1011.6 hPa NNE 23 km/h 28 km/h 82% 0.00 mm 0.00 W/m2
20:54 27.0 °C 24.0 °C 1011.6 hPa NNE 16 km/h 20 km/h 82% 0.00 mm 0.00 W/m2
20:59 27.0 °C 23.0 °C 1011.6 hPa North 19 km/h 24 km/h 82% 0.00 mm 0.00 W/m2
21:04 26.0 °C 23.0 °C 1011.6 hPa NNE 13 km/h 20 km/h 82% 0.00 mm 0.00 W/m2
21:09 26.0 °C 23.0 °C 1011.6 hPa North 19 km/h 20 km/h 82% 0.00 mm 0.00 W/m2
21:14 26.0 °C 23.0 °C 1011.6 hPa North 27 km/h 32 km/h 82% 0.00 mm 0.00 W/m2
21:19 26.0 °C 23.0 °C 1011.6 hPa North 21 km/h 32 km/h 83% 0.00 mm 0.00 W/m2
21:24 26.0 °C 23.0 °C 1011.6 hPa North 24 km/h 28 km/h 82% 0.00 mm 0.00 W/m2
21:29 26.0 °C 23.0 °C 1011.6 hPa North 22 km/h 28 km/h 82% 0.00 mm 0.00 W/m2
21:34 26.0 °C 23.0 °C 1011.6 hPa North 20 km/h 28 km/h 82% 0.00 mm 0.00 W/m2
21:39 26.0 °C 23.0 °C 1011.6 hPa North 20 km/h 24 km/h 82% 0.00 mm 0.00 W/m2
21:44 26.0 °C 23.0 °C 1011.6 hPa North 19 km/h 24 km/h 82% 0.00 mm 0.00 W/m2
21:49 26.0 °C 23.0 °C 1011.6 hPa North 19 km/h 24 km/h 83% 0.00 mm 0.00 W/m2
21:54 26.0 °C 23.0 °C 1011.6 hPa North 18 km/h 24 km/h 83% 0.00 mm 0.00 W/m2
21:59 26.0 °C 23.0 °C 1011.6 hPa North 14 km/h 20 km/h 83% 0.00 mm 0.00 W/m2
22:04 26.0 °C 23.0 °C 1011.6 hPa NNW 18 km/h 20 km/h 82% 0.00 mm 0.00 W/m2
22:09 26.0 °C 23.0 °C 1011.6 hPa North 17 km/h 20 km/h 82% 0.00 mm 0.00 W/m2
22:14 26.0 °C 23.0 °C 1011.6 hPa North 22 km/h 24 km/h 83% 0.00 mm 0.00 W/m2
22:19 26.0 °C 23.0 °C 1011.6 hPa North 16 km/h 24 km/h 83% 0.00 mm 0.00 W/m2
22:24 26.0 °C 23.0 °C 1011.6 hPa North 19 km/h 20 km/h 83% 0.00 mm 0.00 W/m2
22:29 26.0 °C 23.0 °C 1011.6 hPa North 19 km/h 20 km/h 83% 0.00 mm 0.00 W/m2
22:34 26.0 °C 23.0 °C 1011.6 hPa North 13 km/h 16 km/h 83% 0.00 mm 0.00 W/m2
22:39 26.0 °C 23.0 °C 1011.5 hPa North 14 km/h 16 km/h 83% 0.00 mm 0.00 W/m2
22:44 26.0 °C 23.0 °C 1011.5 hPa NNW 16 km/h 24 km/h 83% 0.00 mm 0.00 W/m2
22:49 26.0 °C 23.0 °C 1011.3 hPa North 16 km/h 24 km/h 83% 0.00 mm 0.00 W/m2
22:54 26.0 °C 23.0 °C 1011.5 hPa North 13 km/h 20 km/h 84% 0.00 mm 0.00 W/m2
22:59 26.0 °C 23.0 °C 1011.6 hPa NNE 14 km/h 20 km/h 84% 0.00 mm 0.00 W/m2
23:04 26.0 °C 23.0 °C 1011.6 hPa North 13 km/h 16 km/h 84% 0.00 mm 0.00 W/m2
23:09 26.0 °C 23.0 °C 1011.6 hPa North 15 km/h 20 km/h 84% 0.00 mm 0.00 W/m2
23:14 25.0 °C 23.0 °C 1011.6 hPa North 19 km/h 20 km/h 84% 0.00 mm 0.00 W/m2
23:19 25.0 °C 23.0 °C 1011.5 hPa North 15 km/h 20 km/h 84% 0.00 mm 0.00 W/m2
23:24 25.0 °C 22.0 °C 1011.7 hPa North 15 km/h 20 km/h 84% 0.00 mm 0.00 W/m2
23:29 25.0 °C 22.0 °C 1011.3 hPa North 15 km/h 20 km/h 84% 0.00 mm 0.00 W/m2
23:34 25.0 °C 22.0 °C 1011.3 hPa North 15 km/h 24 km/h 84% 0.00 mm 0.00 W/m2
23:39 25.0 °C 22.0 °C 1011.3 hPa North 15 km/h 20 km/h 84% 0.00 mm 0.00 W/m2
23:44 25.0 °C 23.0 °C 1011.3 hPa North 19 km/h 24 km/h 85% 0.00 mm 0.00 W/m2
23:49 25.0 °C 23.0 °C 1011.3 hPa NNE 19 km/h 20 km/h 85% 0.00 mm 0.00 W/m2
23:54 25.0 °C 23.0 °C 1011.3 hPa North 15 km/h 16 km/h 85% 0.00 mm 0.00 W/m2
23:59 25.0 °C 22.0 °C 1011.3 hPa North 15 km/h 20 km/h 85% 0.00 mm 0.00 W/m2
PIMOHWEATHER Philippines
Compliments of Weather Underground - 2 mb